Battle Creek, MI

1:08 PM EDT on May 27, 2017 (GMT -0400)
Kellogg

Weather History for KBTL - January, 2013

Change the Weather History Date:

Sunday, January 6, 2013

  Actual Average Record
Temperature  
Mean Temperature 40 °F 24 °F  
Max Temperature 51 °F 32 °F 55 °F (2008)
Min Temperature 31 °F 16 °F -12 °F (2014)
Degree Days  
Heating Degree Days 24 41  
Month to date heating degree days 210 246  
Since 1 July heating degree days 2571 2846  
Cooling Degree Days 0 0  
Month to date cooling degree days 0 0  
Year to date cooling degree days 0 0  
Moisture  
Dew Point 27 °F    
Average Humidity 64    
Maximum Humidity 89    
Minimum Humidity 39    
Precipitation  
Precipitation T in 0.06 in 0.18 in (2005)
Month to date precipitation T 0.40  
Year to date precipitation T 0.40  
Sea Level Pressure  
Sea Level Pressure 30.01 in    
Wind  
Wind Speed 11 mph (West)    
Max Wind Speed 21 mph    
Max Gust Speed 26 mph    
Visibility 8 miles    
Events Rain , Snow    
T = Trace of Precipitation, MM = Missing Value Source: NWS Daily Summary

Daily Weather History Graph

Daily Weather History Graph

Search for Another Location

Airport or City:

Trip Planner

Search our weather history database for the weather conditions in past years. The results will help you decide how hot, cold, wet, or windy it might be!

Date:

Astronomy

Jan. 06, 2013 Rise Set
Actual Time 8:10 AM EST 5:24 PM EST
Civil Twilight 7:38 AM EST 5:55 PM EST
Nautical Twilight 7:03 AM EST 6:30 PM EST
Astronomical Twilight 6:29 AM EST 7:04 PM EST
Moon 2:20 AM EST (1/6) 12:53 PM EST (1/6)
Length of Visible Light 10h 17m
Length of Day
9h 14m
Waning Crescent, 33% of the Moon is Illuminated
Jan 6
Waning Crescent
Jan 11
New
Jan 18
First Quarter
Jan 26
Full
Feb 3
Last Quarter

Hourly Weather History & Observations

Time (EST) Temp. Windchill Dew Point Humidity Pressure Visibility Wind Dir Wind Speed Gust Speed Precip Events Conditions
12:06 AM 33.8 °F 23.5 °F 28.4 °F 81% 29.97 in 9.0 mi SSW 16.1 mph - N/A   Overcast
12:53 AM 33.1 °F 22.6 °F 28.0 °F 82% 29.98 in 10.0 mi SW 16.1 mph - N/A   Overcast
1:48 AM 33.8 °F 23.9 °F 28.4 °F 81% 29.94 in 10.0 mi SW 15.0 mph - N/A   Overcast
1:53 AM 33.1 °F 22.6 °F 28.0 °F 82% 29.97 in 10.0 mi SW 16.1 mph - N/A   Overcast
2:53 AM 33.1 °F 23.9 °F 28.9 °F 85% 29.96 in 9.0 mi SW 12.7 mph - 0.00 in   Overcast
3:53 AM 33.1 °F 23.9 °F 28.9 °F 85% 29.95 in 9.0 mi SSW 12.7 mph - 0.00 in   Overcast
4:53 AM 33.8 °F 25.3 °F 28.4 °F 81% 29.90 in 9.0 mi SW 11.5 mph - N/A   Overcast
5:53 AM 34.0 °F 25.5 °F 28.9 °F 82% 29.91 in 10.0 mi SSW 11.5 mph - N/A   Overcast
6:53 AM 34.0 °F 25.5 °F 28.9 °F 82% 29.91 in 9.0 mi SW 11.5 mph - N/A   Overcast
7:18 AM 33.8 °F 25.3 °F 28.4 °F 81% 29.88 in 9.0 mi SW 11.5 mph - N/A   Overcast
7:41 AM 33.8 °F 24.8 °F 28.4 °F 81% 29.88 in 9.0 mi SW 12.7 mph - N/A   Overcast
7:53 AM 34.0 °F 25.0 °F 28.9 °F 82% 29.91 in 9.0 mi SW 12.7 mph - N/A   Overcast
8:04 AM 33.8 °F 24.8 °F 28.4 °F 81% 29.88 in 6.0 mi SW 12.7 mph - N/A Snow Light Snow
8:53 AM 34.0 °F 25.5 °F 30.0 °F 85% 29.92 in 3.0 mi SW 11.5 mph - 0.00 in Snow Light Snow
9:01 AM 33.8 °F 24.8 °F 30.2 °F 87% 29.89 in 4.0 mi SW 12.7 mph - 0.00 in Snow Light Snow
9:53 AM 34.0 °F 25.0 °F 30.0 °F 85% 29.93 in 7.0 mi WSW 12.7 mph 21.9 mph 0.00 in   Overcast
10:53 AM 33.8 °F 24.3 °F 28.4 °F 81% 29.93 in 7.0 mi WSW 13.8 mph - N/A   Overcast
11:29 AM 33.8 °F 24.3 °F 26.6 °F 75% 29.94 in 7.0 mi West 13.8 mph 23.0 mph N/A   Overcast
11:53 AM 33.1 °F 24.4 °F 27.0 °F 78% 29.97 in 7.0 mi West 11.5 mph - N/A   Overcast
12:25 PM 32.0 °F 23.0 °F 26.6 °F 80% 29.94 in 7.0 mi West 11.5 mph - N/A   Overcast
12:49 PM 32.0 °F 22.5 °F 28.4 °F 87% 29.95 in 2.5 mi NW 12.7 mph - 0.00 in   Overcast
12:53 PM 32.0 °F 23.0 °F 28.0 °F 85% 29.98 in 2.0 mi WNW 11.5 mph - 0.00 in Rain Light Freezing Rain
1:01 PM 30.2 °F 19.8 °F 28.4 °F 93% 29.95 in 1.8 mi WNW 13.8 mph - 0.00 in Rain Light Freezing Rain
1:22 PM 37.4 °F 28.5 °F 26.6 °F 65% 29.96 in 2.0 mi WNW 15.0 mph - 0.00 in Rain Light Freezing Rain
1:27 PM 41.0 °F 34.3 °F 26.6 °F 57% 29.96 in 3.0 mi WNW 11.5 mph - 0.00 in Rain Light Freezing Rain
1:35 PM 44.6 °F 38.1 °F 26.6 °F 49% 29.96 in 4.0 mi WNW 13.8 mph - 0.00 in   Haze
1:53 PM 45.0 °F 38.5 °F 26.1 °F 48% 29.99 in 5.0 mi West 13.8 mph - 0.00 in   Haze
2:15 PM 46.4 °F 41.9 °F 26.6 °F 46% 29.97 in 5.0 mi West 9.2 mph - N/A   Haze
2:53 PM 48.9 °F - 25.0 °F 39% 30.01 in 7.0 mi West 9.2 mph - N/A   Overcast
3:53 PM 48.0 °F - 26.1 °F 42% 30.05 in 9.0 mi WNW 8.1 mph - N/A   Overcast
4:53 PM - - - N/A% 30.07 in 10.0 mi WNW 8.1 mph - N/A   Overcast
5:14 PM - - - N/A% 30.08 in 10.0 mi NW 11.5 mph - N/A   Overcast
5:43 PM - - - N/A% 30.10 in 10.0 mi NW 11.5 mph - N/A   Overcast
5:53 PM - - - N/A% 30.11 in 10.0 mi NNW 12.7 mph - N/A   Overcast
6:53 PM 48.0 °F - 26.1 °F 42% 30.17 in 10.0 mi NW 11.5 mph - N/A   Overcast
7:53 PM - - - N/A% 30.19 in 10.0 mi NW 9.2 mph - N/A   Overcast
8:53 PM 48.9 °F - 25.0 °F 39% 30.24 in 10.0 mi NW 11.5 mph - N/A   Overcast
9:10 PM 51.8 °F - 24.8 °F 35% 30.22 in 10.0 mi NW 8.1 mph - N/A   Overcast
9:53 PM - - - N/A% 30.24 in 10.0 mi NW 9.2 mph - N/A   Overcast
10:53 PM 43.0 °F 39.5 °F 21.0 °F 42% 30.29 in 10.0 mi NNW 5.8 mph - N/A   Overcast
11:53 PM 44.1 °F 42.5 °F 21.9 °F 42% 30.30 in 10.0 mi WSW 3.5 mph - N/A   Overcast